Simultaneous Nadir Overpasses (SNOs) Predictions

Prediction of SNOs between NOAA-20 and AQUA Satellite Orbit:

Table of predicted SNOs for the next 14.0 days since TLE Epoch: 10/18/2019
Index Date (NOAA-20) Time (NOAA-20) Lat,Lon (NOAA-20) SZA (NOAA-20 ) Date (AQUA) Time (AQUA) Lat,Lon (AQUA) SZA (AQUA ) Distance(km) Time Diff (sec)
1 10/20/2019 05:56:03 75.18, -32.60 107.32 10/20/2019 05:57:06 75.18, -32.59 107.26 0.25 63
2 10/20/2019 06:46:22 -76.43, 138.81 74.09 10/20/2019 06:46:09 -76.42, 138.74 74.06 1.82 13
3 10/22/2019 22:12:55 75.36, 83.70 108.03 10/22/2019 22:13:31 75.37, 83.79 107.97 2.70 36
4 10/22/2019 23:03:15 -76.55,-104.96 73.33 10/22/2019 23:02:35 -76.55,-104.94 73.30 0.61 40
5 10/25/2019 14:29:36 76.04,-158.33 108.14 10/25/2019 14:29:46 76.04,-158.36 108.14 1.13 10
6 10/25/2019 15:20:06 -76.76, 11.61 72.69 10/25/2019 15:18:59 -76.77, 11.70 72.65 2.52 67
7 10/28/2019 05:56:03 -75.29, 147.71 70.16 10/28/2019 05:57:04 -75.29, 147.67 70.21 1.02 61
8 10/28/2019 06:46:25 76.30, -41.65 108.72 10/28/2019 06:46:08 76.30, -41.64 108.73 0.47 17
9 10/30/2019 22:12:52 -75.60, -95.56 69.65 10/30/2019 22:13:26 -75.60, -95.56 69.68 0.26 34




NCC Satellite Simultaneous Nadir Overpasses (SNOs) Prediction Service
